{"data":{"norad_id":59350,"intl_designator":"2024-060C","name":"STARLINK-31593","alt_names":[],"object_type":"PAYLOAD","status":"ACTIVE","operator":null,"country":"US","launch_date":"2024-03-31","launch_site_code":"AFETR","launch_vehicle":null,"mission":null,"orbit_class":"UNKNOWN","rcs_meters":null,"size_class":null,"mass_kg":null,"dimensions":null,"purposes":["comms"],"wikipedia_slug":null,"has_3d_model":false,"image_url":null,"decayed_at":null,"tle_current":{"epoch":"2026-05-24T20:10:46.680384Z","epoch_age_seconds":82747,"freshness":"FRESH","line1":"1 59350U 24060C   26144.84081806  .00000068  00000+0  12005-4 0  9991","line2":"2 59350  43.0026 189.4149 0001168 276.6567  83.4151 15.27576779121710","mean_motion":15.27576779,"eccentricity":0.0001168,"inclination_deg":43.0026,"raan_deg":189.4149,"arg_perigee_deg":276.6567,"mean_anomaly_deg":83.4151,"bstar":1.2005e-5,"rev_number":12171,"period_min":94.266947481531,"perigee_km":482.25735322681,"apogee_km":483.86012855189,"semimajor_km":6861.1957408893,"source":"CELESTRAK","updated_at":"2026-05-25T13:38:18.908526Z"}}}